Location: Dattensoll
(49.9928°N, 9.8954°E)
Time: 10:17:17
(UTC+00:00)

PKM - Pass Details

Date: 19 May 2025
Orbit: 410 x 13726 km, 55.3° (Epoch: 21 June)

Event Time Altitude Azimuth Distance (km) Brightness Sun altitude
Rises 22:17:52 0° 256° (WSW) 2,360 7.1 -18.8°
Reaches altitude 10° 22:19:36 10° 262° (W) 1,492 6.1 -18.9°
Maximum altitude 22:22:19 56° 343° (NNW) 604 4.3 -19.0°
Drops below altitude 10° 22:27:04 10° 63° (ENE) 2,587 7.4 -19.2°
Sets 22:31:08 0° 67° (ENE) 4,536 8.6 -19.3°
